Year,Month,Day,Hour,Minute,Value (Times are PST for temperature in C)
2015,02,21,00,00,3.50
2015,02,21,00,01,3.40
2015,02,21,00,02,3.40
2015,02,21,00,03,3.40
2015,02,21,00,04,3.30
2015,02,21,00,05,3.30
2015,02,21,00,06,3.30
2015,02,21,00,07,3.30
2015,02,21,00,08,3.30
2015,02,21,00,09,3.30
2015,02,21,00,10,3.30
2015,02,21,00,11,3.20
2015,02,21,00,12,3.20
2015,02,21,00,13,3.20
2015,02,21,00,14,3.20
2015,02,21,00,15,3.20
2015,02,21,00,16,3.20
2015,02,21,00,17,3.10
2015,02,21,00,18,3.10
2015,02,21,00,19,3.20
2015,02,21,00,20,3.20
2015,02,21,00,21,3.20
2015,02,21,00,22,3.20
2015,02,21,00,23,3.20
2015,02,21,00,24,3.20
2015,02,21,00,25,3.20
2015,02,21,00,26,3.20
2015,02,21,00,27,3.20
2015,02,21,00,28,3.20
2015,02,21,00,29,3.20
2015,02,21,00,30,3.20
2015,02,21,00,31,3.20
2015,02,21,00,32,3.20
2015,02,21,00,33,3.20
2015,02,21,00,34,3.20
2015,02,21,00,35,3.20
2015,02,21,00,36,3.10
2015,02,21,00,37,3.10
2015,02,21,00,38,3.10
2015,02,21,00,39,3.10
2015,02,21,00,40,3.10
2015,02,21,00,41,3.10
2015,02,21,00,42,3.10
2015,02,21,00,43,3.10
2015,02,21,00,44,3.10
2015,02,21,00,45,3.10
2015,02,21,00,46,3.10
2015,02,21,00,47,3.10
2015,02,21,00,48,3.10
2015,02,21,00,49,3.10
2015,02,21,00,50,3.20
2015,02,21,00,51,3.20
2015,02,21,00,52,3.20
2015,02,21,00,53,3.20
2015,02,21,00,54,3.20
2015,02,21,00,55,3.10
2015,02,21,00,56,3.10
2015,02,21,00,57,3.10
2015,02,21,00,58,3.10
2015,02,21,00,59,3.10
2015,02,21,01,00,3.10
2015,02,21,01,01,3.10
2015,02,21,01,02,3.10
2015,02,21,01,03,3.10
2015,02,21,01,04,3.10
2015,02,21,01,05,3.10
2015,02,21,01,06,3.10
2015,02,21,01,07,3.10
2015,02,21,01,08,3.10
2015,02,21,01,09,3.10
2015,02,21,01,10,3.10
2015,02,21,01,11,3.10
2015,02,21,01,12,3.10
2015,02,21,01,13,3.10
2015,02,21,01,14,3.20
2015,02,21,01,15,3.20
2015,02,21,01,16,3.20
2015,02,21,01,17,3.10
2015,02,21,01,18,3.10
2015,02,21,01,19,3.10
2015,02,21,01,20,3.10
2015,02,21,01,21,3.10
2015,02,21,01,22,3.10
2015,02,21,01,23,3.10
2015,02,21,01,24,3.10
2015,02,21,01,25,3.20
2015,02,21,01,26,3.20
2015,02,21,01,27,3.20
2015,02,21,01,28,3.20
2015,02,21,01,29,3.20
2015,02,21,01,30,3.20
2015,02,21,01,31,3.20
2015,02,21,01,32,3.10
2015,02,21,01,33,3.10
2015,02,21,01,34,3.10
2015,02,21,01,35,3.10
2015,02,21,01,36,2.90
2015,02,21,01,37,2.90
2015,02,21,01,38,2.90
2015,02,21,01,39,2.90
2015,02,21,01,40,2.90
2015,02,21,01,41,2.80
2015,02,21,01,42,2.80
2015,02,21,01,43,2.80
2015,02,21,01,44,2.80
2015,02,21,01,45,2.90
2015,02,21,01,46,2.90
2015,02,21,01,47,2.90
2015,02,21,01,48,2.80
2015,02,21,01,49,2.80
2015,02,21,01,50,2.80
2015,02,21,01,51,2.80
2015,02,21,01,52,2.80
2015,02,21,01,53,2.80
2015,02,21,01,54,2.70
2015,02,21,01,55,2.70
2015,02,21,01,56,2.70
2015,02,21,01,57,2.70
2015,02,21,01,58,2.70
2015,02,21,01,59,2.70
2015,02,21,02,00,2.70
2015,02,21,02,01,2.70
2015,02,21,02,02,2.70
2015,02,21,02,03,2.70
2015,02,21,02,04,2.70
2015,02,21,02,05,2.70
2015,02,21,02,06,2.60
2015,02,21,02,07,2.60
2015,02,21,02,08,2.60
2015,02,21,02,09,2.60
2015,02,21,02,10,2.60
2015,02,21,02,11,2.70
2015,02,21,02,12,2.70
2015,02,21,02,13,2.70
2015,02,21,02,14,2.70
2015,02,21,02,15,2.70
2015,02,21,02,16,2.70
2015,02,21,02,17,2.70
2015,02,21,02,18,2.70
2015,02,21,02,19,2.70
2015,02,21,02,20,2.70
2015,02,21,02,21,2.70
2015,02,21,02,22,2.60
2015,02,21,02,23,2.60
2015,02,21,02,24,2.60
2015,02,21,02,25,2.50
2015,02,21,02,26,2.50
2015,02,21,02,27,2.50
2015,02,21,02,28,2.50
2015,02,21,02,29,2.40
2015,02,21,02,30,2.40
2015,02,21,02,31,2.50
2015,02,21,02,32,2.50
2015,02,21,02,33,2.50
2015,02,21,02,34,2.50
2015,02,21,02,35,2.50
2015,02,21,02,36,2.50
2015,02,21,02,37,2.50
2015,02,21,02,38,2.50
2015,02,21,02,39,2.50
2015,02,21,02,40,2.50
2015,02,21,02,41,2.50
2015,02,21,02,42,2.40
2015,02,21,02,43,2.40
2015,02,21,02,44,2.40
2015,02,21,02,45,2.40
2015,02,21,02,46,2.40
2015,02,21,02,47,2.30
2015,02,21,02,48,2.30
2015,02,21,02,49,2.30
2015,02,21,02,50,2.30
2015,02,21,02,51,2.30
2015,02,21,02,52,2.30
2015,02,21,02,53,2.20
2015,02,21,02,54,2.20
2015,02,21,02,55,2.20
2015,02,21,02,56,2.20
2015,02,21,02,57,2.20
2015,02,21,02,58,2.20
2015,02,21,02,59,2.20
2015,02,21,03,00,2.20
2015,02,21,03,01,2.20
2015,02,21,03,02,2.20
2015,02,21,03,03,2.20
2015,02,21,03,04,2.20
2015,02,21,03,05,2.20
2015,02,21,03,06,2.20
2015,02,21,03,07,2.20
2015,02,21,03,08,2.20
2015,02,21,03,09,2.20
2015,02,21,03,10,2.20
2015,02,21,03,11,2.20
2015,02,21,03,12,2.20
2015,02,21,03,13,2.20
2015,02,21,03,14,2.20
2015,02,21,03,15,2.20
2015,02,21,03,16,2.20
2015,02,21,03,17,2.20
2015,02,21,03,18,2.20
2015,02,21,03,19,2.20
2015,02,21,03,20,2.20
2015,02,21,03,21,2.20
2015,02,21,03,22,2.20
2015,02,21,03,23,2.20
2015,02,21,03,24,2.20
2015,02,21,03,25,2.20
2015,02,21,03,26,2.20
2015,02,21,03,27,2.20
2015,02,21,03,28,2.20
2015,02,21,03,29,2.20
2015,02,21,03,30,2.20
2015,02,21,03,31,2.20
2015,02,21,03,32,2.20
2015,02,21,03,33,2.20
2015,02,21,03,34,2.20
2015,02,21,03,35,2.20
2015,02,21,03,36,2.20
2015,02,21,03,37,2.20
2015,02,21,03,38,2.20
2015,02,21,03,39,2.20
2015,02,21,03,40,2.20
2015,02,21,03,41,2.20
2015,02,21,03,42,2.20
2015,02,21,03,43,2.20
2015,02,21,03,44,2.20
2015,02,21,03,45,2.20
2015,02,21,03,46,2.20
2015,02,21,03,47,2.20
2015,02,21,03,48,2.20
2015,02,21,03,49,2.20
2015,02,21,03,50,2.20
2015,02,21,03,51,2.20
2015,02,21,03,52,2.20
2015,02,21,03,53,2.20
2015,02,21,03,54,2.20
2015,02,21,03,55,2.20
2015,02,21,03,56,2.30
2015,02,21,03,57,2.30
2015,02,21,03,58,2.30
2015,02,21,03,59,2.40
2015,02,21,04,00,2.40
2015,02,21,04,01,2.40
2015,02,21,04,02,2.40
2015,02,21,04,03,2.50
2015,02,21,04,04,2.50
2015,02,21,04,05,2.50
2015,02,21,04,06,2.50
2015,02,21,04,07,2.50
2015,02,21,04,08,2.50
2015,02,21,04,09,2.50
2015,02,21,04,10,2.50
2015,02,21,04,11,2.50
2015,02,21,04,12,2.50
2015,02,21,04,13,2.50
2015,02,21,04,14,2.50
2015,02,21,04,15,2.50
2015,02,21,04,16,2.50
2015,02,21,04,17,2.50
2015,02,21,04,18,2.50
2015,02,21,04,19,2.50
2015,02,21,04,20,2.40
2015,02,21,04,21,2.40
2015,02,21,04,22,2.40
2015,02,21,04,23,2.40
2015,02,21,04,24,2.40
2015,02,21,04,25,2.30
2015,02,21,04,26,2.40
2015,02,21,04,27,2.40
2015,02,21,04,28,2.40
2015,02,21,04,29,2.40
2015,02,21,04,30,2.40
2015,02,21,04,31,2.50
2015,02,21,04,32,2.50
2015,02,21,04,33,2.50
2015,02,21,04,34,2.50
2015,02,21,04,35,2.40
2015,02,21,04,36,2.40
2015,02,21,04,37,2.40
2015,02,21,04,38,2.40
2015,02,21,04,39,2.40
2015,02,21,04,40,2.40
2015,02,21,04,41,2.30
2015,02,21,04,42,2.30
2015,02,21,04,43,2.30
2015,02,21,04,44,2.30
2015,02,21,04,45,2.30
2015,02,21,04,46,2.30
2015,02,21,04,47,2.30
2015,02,21,04,48,2.30
2015,02,21,04,49,2.30
2015,02,21,04,50,2.20
2015,02,21,04,51,2.20
2015,02,21,04,52,2.20
2015,02,21,04,53,2.20
2015,02,21,04,54,2.20
2015,02,21,04,55,2.20
2015,02,21,04,56,2.20
2015,02,21,04,57,2.20
2015,02,21,04,58,2.20
2015,02,21,04,59,2.20
2015,02,21,05,00,2.20
2015,02,21,05,01,2.20
2015,02,21,05,02,2.20
2015,02,21,05,03,2.20
2015,02,21,05,04,2.20
2015,02,21,05,05,2.10
2015,02,21,05,06,2.10
2015,02,21,05,07,2.10
2015,02,21,05,08,2.10
2015,02,21,05,09,2.10
2015,02,21,05,10,2.10
2015,02,21,05,11,2.10
2015,02,21,05,12,2.10
2015,02,21,05,13,2.00
2015,02,21,05,14,2.00
2015,02,21,05,15,2.00
2015,02,21,05,16,2.00
2015,02,21,05,17,2.10
2015,02,21,05,18,2.10
2015,02,21,05,19,2.10
2015,02,21,05,20,2.10
2015,02,21,05,21,2.00
2015,02,21,05,22,2.00
2015,02,21,05,23,2.00
2015,02,21,05,24,2.00
2015,02,21,05,25,2.00
2015,02,21,05,26,2.10
2015,02,21,05,27,2.00
2015,02,21,05,28,2.00
2015,02,21,05,29,2.00
2015,02,21,05,30,2.00
2015,02,21,05,31,2.00
2015,02,21,05,32,2.00
2015,02,21,05,33,2.00
2015,02,21,05,34,2.00
2015,02,21,05,35,2.00
2015,02,21,05,36,2.00
2015,02,21,05,37,2.00
2015,02,21,05,38,2.00
2015,02,21,05,39,2.00
2015,02,21,05,40,2.00
2015,02,21,05,41,2.00
2015,02,21,05,42,2.00
2015,02,21,05,43,2.00
2015,02,21,05,44,2.00
2015,02,21,05,45,2.00
2015,02,21,05,46,2.00
2015,02,21,05,47,2.00
2015,02,21,05,48,2.00
2015,02,21,05,49,2.00
2015,02,21,05,50,2.00
2015,02,21,05,51,2.00
2015,02,21,05,52,2.00
2015,02,21,05,53,2.00
2015,02,21,05,54,2.00
2015,02,21,05,55,1.90
2015,02,21,05,56,1.90
2015,02,21,05,57,1.90
2015,02,21,05,58,1.90
2015,02,21,05,59,1.90
2015,02,21,06,00,1.90
2015,02,21,06,01,1.90
2015,02,21,06,02,1.90
2015,02,21,06,03,1.90
2015,02,21,06,04,1.90
2015,02,21,06,05,1.90
2015,02,21,06,06,1.80
2015,02,21,06,07,1.80
2015,02,21,06,08,1.80
2015,02,21,06,09,1.80
2015,02,21,06,10,1.80
2015,02,21,06,11,1.80
2015,02,21,06,12,1.80
2015,02,21,06,13,1.80
2015,02,21,06,14,1.80
2015,02,21,06,15,1.80
2015,02,21,06,16,1.80
2015,02,21,06,17,1.80
2015,02,21,06,18,1.70
2015,02,21,06,19,1.70
2015,02,21,06,20,1.70
2015,02,21,06,21,1.70
2015,02,21,06,22,1.70
2015,02,21,06,23,1.70
2015,02,21,06,24,1.60
2015,02,21,06,25,1.60
2015,02,21,06,26,1.60
2015,02,21,06,27,1.60
2015,02,21,06,28,1.60
2015,02,21,06,29,1.60
2015,02,21,06,30,1.60
2015,02,21,06,31,1.50
2015,02,21,06,32,1.50
2015,02,21,06,33,1.50
2015,02,21,06,34,1.50
2015,02,21,06,35,1.50
2015,02,21,06,36,1.50
2015,02,21,06,37,1.50
2015,02,21,06,38,1.50
2015,02,21,06,39,1.50
2015,02,21,06,40,1.50
2015,02,21,06,41,1.50
2015,02,21,06,42,1.50
2015,02,21,06,43,1.50
2015,02,21,06,44,1.50
2015,02,21,06,45,1.50
2015,02,21,06,46,1.50
2015,02,21,06,47,1.50
2015,02,21,06,48,1.50
2015,02,21,06,49,1.50
2015,02,21,06,50,1.50
2015,02,21,06,51,1.40
2015,02,21,06,52,1.40
2015,02,21,06,53,1.40
2015,02,21,06,54,1.40
2015,02,21,06,55,1.40
2015,02,21,06,56,1.40
2015,02,21,06,57,1.40
2015,02,21,06,58,1.40
2015,02,21,06,59,1.40
2015,02,21,07,00,1.50
2015,02,21,07,01,1.50
2015,02,21,07,02,1.50
2015,02,21,07,03,1.50
2015,02,21,07,04,1.50
2015,02,21,07,05,1.50
2015,02,21,07,06,1.50
2015,02,21,07,07,1.50
2015,02,21,07,08,1.50
2015,02,21,07,09,1.50
2015,02,21,07,10,1.50
2015,02,21,07,11,1.50
2015,02,21,07,12,1.50
2015,02,21,07,13,1.50
2015,02,21,07,14,1.40
2015,02,21,07,15,1.40
2015,02,21,07,16,1.40
2015,02,21,07,17,1.40
2015,02,21,07,18,1.40
2015,02,21,07,19,1.40
2015,02,21,07,20,1.40
2015,02,21,07,21,1.40
2015,02,21,07,22,1.30
2015,02,21,07,23,1.30
2015,02,21,07,24,1.30
2015,02,21,07,25,1.30
2015,02,21,07,26,1.30
2015,02,21,07,27,1.30
2015,02,21,07,28,1.30
2015,02,21,07,29,1.40
2015,02,21,07,30,1.40
2015,02,21,07,31,1.40
2015,02,21,07,32,1.40
2015,02,21,07,33,1.40
2015,02,21,07,34,1.40
2015,02,21,07,35,1.40
2015,02,21,07,36,1.40
2015,02,21,07,37,1.40
2015,02,21,07,38,1.40
2015,02,21,07,39,1.40
2015,02,21,07,40,1.40
2015,02,21,07,41,1.40
2015,02,21,07,42,1.40
2015,02,21,07,43,1.50
2015,02,21,07,44,1.50
2015,02,21,07,45,1.50
2015,02,21,07,46,1.50
2015,02,21,07,47,1.50
2015,02,21,07,48,1.50
2015,02,21,07,49,1.50
2015,02,21,07,50,1.50
2015,02,21,07,51,1.50
2015,02,21,07,52,1.50
2015,02,21,07,53,1.50
2015,02,21,07,54,1.50
2015,02,21,07,55,1.60
2015,02,21,07,56,1.60
2015,02,21,07,57,1.60
2015,02,21,07,58,1.60
2015,02,21,07,59,1.60
2015,02,21,08,00,1.60
2015,02,21,08,01,1.60
2015,02,21,08,02,1.60
2015,02,21,08,03,1.60
2015,02,21,08,04,1.60
2015,02,21,08,05,1.60
2015,02,21,08,06,1.60
2015,02,21,08,07,1.60
2015,02,21,08,08,1.70
2015,02,21,08,09,1.70
2015,02,21,08,10,1.70
2015,02,21,08,11,1.60
2015,02,21,08,12,1.60
2015,02,21,08,13,1.60
2015,02,21,08,14,1.60
2015,02,21,08,15,1.60
2015,02,21,08,16,1.60
2015,02,21,08,17,1.60
2015,02,21,08,18,1.60
2015,02,21,08,19,1.60
2015,02,21,08,20,1.60
2015,02,21,08,21,1.60
2015,02,21,08,22,1.60
2015,02,21,08,23,1.60
2015,02,21,08,24,1.70
2015,02,21,08,25,1.70
2015,02,21,08,26,1.70
2015,02,21,08,27,1.70
2015,02,21,08,28,1.60
2015,02,21,08,29,1.60
2015,02,21,08,30,1.60
2015,02,21,08,31,1.60
2015,02,21,08,32,1.60
2015,02,21,08,33,1.60
2015,02,21,08,34,1.60
2015,02,21,08,35,1.60
2015,02,21,08,36,1.60
2015,02,21,08,37,1.60
2015,02,21,08,38,1.60
2015,02,21,08,39,1.60
2015,02,21,08,40,1.60
2015,02,21,08,41,1.60
2015,02,21,08,42,1.60
2015,02,21,08,43,1.60
2015,02,21,08,44,1.60
2015,02,21,08,45,1.70
2015,02,21,08,46,1.70
2015,02,21,08,47,1.70
2015,02,21,08,48,1.70
2015,02,21,08,49,1.80
2015,02,21,08,50,1.80
2015,02,21,08,51,1.80
2015,02,21,08,52,1.80
2015,02,21,08,53,1.80
2015,02,21,08,54,1.80
2015,02,21,08,55,1.80
2015,02,21,08,56,1.80
2015,02,21,08,57,1.80
2015,02,21,08,58,1.80
2015,02,21,08,59,1.80
2015,02,21,09,00,1.80
2015,02,21,09,01,1.90
2015,02,21,09,02,1.80
2015,02,21,09,03,1.80
2015,02,21,09,04,1.80
2015,02,21,09,05,1.80
2015,02,21,09,06,1.80
2015,02,21,09,07,1.80
2015,02,21,09,08,1.80
2015,02,21,09,09,1.80
2015,02,21,09,10,1.80
2015,02,21,09,11,1.80
2015,02,21,09,12,1.80
2015,02,21,09,13,1.80
2015,02,21,09,14,1.80
2015,02,21,09,15,1.80
2015,02,21,09,16,1.80
2015,02,21,09,17,1.80
2015,02,21,09,18,1.90
2015,02,21,09,19,1.90
2015,02,21,09,20,1.80
2015,02,21,09,21,1.90
2015,02,21,09,22,1.90
2015,02,21,09,23,1.90
2015,02,21,09,24,1.90
2015,02,21,09,25,1.90
2015,02,21,09,26,1.80
2015,02,21,09,27,1.80
2015,02,21,09,28,1.80
2015,02,21,09,29,1.80
2015,02,21,09,30,1.80
2015,02,21,09,31,1.80
2015,02,21,09,32,1.80
2015,02,21,09,33,1.90
2015,02,21,09,34,1.90
2015,02,21,09,35,1.90
2015,02,21,09,36,1.90
2015,02,21,09,37,1.90
2015,02,21,09,38,1.90
2015,02,21,09,39,1.90
2015,02,21,09,40,1.90
2015,02,21,09,41,1.90
2015,02,21,09,42,1.90
2015,02,21,09,43,1.90
2015,02,21,09,44,1.90
2015,02,21,09,45,1.90
2015,02,21,09,46,2.00
2015,02,21,09,47,2.00
2015,02,21,09,48,2.10
2015,02,21,09,49,2.10
2015,02,21,09,50,2.10
2015,02,21,09,51,2.10
2015,02,21,09,52,2.10
2015,02,21,09,53,2.10
2015,02,21,09,54,2.20
2015,02,21,09,55,2.20
2015,02,21,09,56,2.20
2015,02,21,09,57,2.20
2015,02,21,09,58,2.30
2015,02,21,09,59,2.30
2015,02,21,10,00,2.30
2015,02,21,10,01,2.30
2015,02,21,10,02,2.30
2015,02,21,10,03,2.30
2015,02,21,10,04,2.30
2015,02,21,10,05,2.30
2015,02,21,10,06,2.30
2015,02,21,10,07,2.30
2015,02,21,10,08,2.30
2015,02,21,10,09,2.30
2015,02,21,10,10,2.40
2015,02,21,10,11,2.40
2015,02,21,10,12,2.50
2015,02,21,10,13,2.50
2015,02,21,10,14,2.50
2015,02,21,10,15,2.50
2015,02,21,10,16,2.50
2015,02,21,10,17,2.50
2015,02,21,10,18,2.60
2015,02,21,10,19,2.60
2015,02,21,10,20,2.60
2015,02,21,10,21,2.60
2015,02,21,10,22,2.60
2015,02,21,10,23,2.60
2015,02,21,10,24,2.70
2015,02,21,10,25,2.70
2015,02,21,10,26,2.70
2015,02,21,10,27,2.70
2015,02,21,10,28,2.70
2015,02,21,10,29,2.70
2015,02,21,10,30,2.70
2015,02,21,10,31,2.70
2015,02,21,10,32,2.80
2015,02,21,10,33,2.80
2015,02,21,10,34,2.80
2015,02,21,10,35,2.80
2015,02,21,10,36,2.80
2015,02,21,10,37,2.80
2015,02,21,10,38,2.80
2015,02,21,10,39,2.80
2015,02,21,10,40,2.80
2015,02,21,10,41,2.80
2015,02,21,10,42,2.80
2015,02,21,10,43,2.80
2015,02,21,10,44,2.90
2015,02,21,10,45,2.90
2015,02,21,10,46,2.90
2015,02,21,10,47,2.90
2015,02,21,10,48,2.90
2015,02,21,10,49,2.90
2015,02,21,10,50,3.10
2015,02,21,10,51,3.10
2015,02,21,10,52,3.10
2015,02,21,10,53,3.10
2015,02,21,10,54,3.10
2015,02,21,10,55,3.10
2015,02,21,10,56,3.20
2015,02,21,10,57,3.20
2015,02,21,10,58,3.20
2015,02,21,10,59,3.20
2015,02,21,11,00,3.30
2015,02,21,11,01,3.30
2015,02,21,11,02,3.30
2015,02,21,11,03,3.30
2015,02,21,11,04,3.30
2015,02,21,11,05,3.30
2015,02,21,11,06,3.30
2015,02,21,11,07,3.40
2015,02,21,11,08,3.40
2015,02,21,11,09,3.40
2015,02,21,11,10,3.50
2015,02,21,11,11,3.50
2015,02,21,11,12,3.50
2015,02,21,11,13,3.50
2015,02,21,11,14,3.60
2015,02,21,11,15,3.60
2015,02,21,11,16,3.60
2015,02,21,11,17,3.70
2015,02,21,11,18,3.70
2015,02,21,11,19,3.80
2015,02,21,11,20,3.80
2015,02,21,11,21,3.80
2015,02,21,11,22,3.90
2015,02,21,11,23,3.90
2015,02,21,11,24,4.00
2015,02,21,11,25,4.00
2015,02,21,11,26,3.90
2015,02,21,11,27,3.90
2015,02,21,11,28,3.90
2015,02,21,11,29,3.90
2015,02,21,11,30,3.90
2015,02,21,11,31,3.90
2015,02,21,11,32,3.90
2015,02,21,11,33,4.00
2015,02,21,11,34,4.00
2015,02,21,11,35,4.00
2015,02,21,11,36,4.00
2015,02,21,11,37,4.00
2015,02,21,11,38,3.90
2015,02,21,11,39,3.90
2015,02,21,11,40,3.90
2015,02,21,11,41,3.90
2015,02,21,11,42,4.00
2015,02,21,11,43,4.00
2015,02,21,11,44,4.00
2015,02,21,11,45,4.10
2015,02,21,11,46,4.10
2015,02,21,11,47,4.20
2015,02,21,11,48,4.30
2015,02,21,11,49,4.40
2015,02,21,11,50,4.50
2015,02,21,11,51,4.60
2015,02,21,11,52,4.60
2015,02,21,11,53,4.70
2015,02,21,11,54,4.80
2015,02,21,11,55,4.90
2015,02,21,11,56,4.90
2015,02,21,11,57,4.90
2015,02,21,11,58,5.10
2015,02,21,11,59,5.10
2015,02,21,12,00,5.10
2015,02,21,12,01,5.10
2015,02,21,12,02,5.20
2015,02,21,12,03,5.20
2015,02,21,12,04,5.30
2015,02,21,12,05,5.30
2015,02,21,12,06,5.30
2015,02,21,12,07,5.30
2015,02,21,12,08,5.30
2015,02,21,12,09,5.30
2015,02,21,12,10,5.30
2015,02,21,12,11,5.40
2015,02,21,12,12,5.50
2015,02,21,12,13,5.60
2015,02,21,12,14,5.70
2015,02,21,12,15,5.70
2015,02,21,12,16,5.80
2015,02,21,12,17,5.90
2015,02,21,12,18,6.00
2015,02,21,12,19,6.00
2015,02,21,12,20,6.10
2015,02,21,12,21,6.20
2015,02,21,12,22,6.20
2015,02,21,12,23,6.20
2015,02,21,12,24,6.20
2015,02,21,12,25,6.30
2015,02,21,12,26,6.40
2015,02,21,12,27,6.60
2015,02,21,12,28,6.70
2015,02,21,12,29,6.80
2015,02,21,12,30,6.90
2015,02,21,12,31,7.00
2015,02,21,12,32,7.10
2015,02,21,12,33,7.20
2015,02,21,12,34,7.30
2015,02,21,12,35,7.30
2015,02,21,12,36,7.30
2015,02,21,12,37,7.30
2015,02,21,12,38,7.30
2015,02,21,12,39,7.30
2015,02,21,12,40,7.30
2015,02,21,12,41,7.40
2015,02,21,12,42,7.50
2015,02,21,12,43,7.50
2015,02,21,12,44,7.60
2015,02,21,12,45,7.70
2015,02,21,12,46,7.80
2015,02,21,12,47,7.80
2015,02,21,12,48,7.90
2015,02,21,12,49,8.00
2015,02,21,12,50,8.10
2015,02,21,12,51,8.20
2015,02,21,12,52,8.20
2015,02,21,12,53,8.20
2015,02,21,12,54,8.20
2015,02,21,12,55,8.20
2015,02,21,12,56,8.20
2015,02,21,12,57,8.20
2015,02,21,12,58,8.20
2015,02,21,12,59,8.20
2015,02,21,13,00,8.30
2015,02,21,13,01,8.50
2015,02,21,13,02,8.70
2015,02,21,13,03,8.80
2015,02,21,13,04,8.90
2015,02,21,13,05,9.10
2015,02,21,13,06,9.20
2015,02,21,13,07,9.20
2015,02,21,13,08,9.30
2015,02,21,13,09,9.50
2015,02,21,13,10,9.70
2015,02,21,13,11,9.70
2015,02,21,13,12,9.70
2015,02,21,13,13,9.70
2015,02,21,13,14,9.70
2015,02,21,13,15,9.70
2015,02,21,13,16,9.80
2015,02,21,13,17,9.90
2015,02,21,13,18,9.90
2015,02,21,13,19,9.80
2015,02,21,13,20,9.80
2015,02,21,13,21,9.80
2015,02,21,13,22,9.80
2015,02,21,13,23,9.90
2015,02,21,13,24,9.90
2015,02,21,13,25,9.90
2015,02,21,13,26,9.90
2015,02,21,13,27,10.10
2015,02,21,13,28,10.10
2015,02,21,13,29,10.20
2015,02,21,13,30,10.30
2015,02,21,13,31,10.40
2015,02,21,13,32,10.40
2015,02,21,13,33,10.40
2015,02,21,13,34,10.40
2015,02,21,13,35,10.60
2015,02,21,13,36,10.70
2015,02,21,13,37,10.80
2015,02,21,13,38,10.90
2015,02,21,13,39,10.90
2015,02,21,13,40,10.90
2015,02,21,13,41,10.90
2015,02,21,13,42,10.90
2015,02,21,13,43,10.90
2015,02,21,13,44,11.10
2015,02,21,13,45,11.10
2015,02,21,13,46,11.20
2015,02,21,13,47,11.30
2015,02,21,13,48,11.40
2015,02,21,13,49,11.60
2015,02,21,13,50,11.70
2015,02,21,13,51,11.80
2015,02,21,13,52,11.90
2015,02,21,13,53,12.00
2015,02,21,13,54,12.10
2015,02,21,13,55,12.20
2015,02,21,13,56,12.20
2015,02,21,13,57,12.30
2015,02,21,13,58,12.30
2015,02,21,13,59,12.50
2015,02,21,14,00,12.60
2015,02,21,14,01,12.80
2015,02,21,14,02,12.80
2015,02,21,14,03,13.00
2015,02,21,14,04,13.10
2015,02,21,14,05,13.30
2015,02,21,14,06,13.30
2015,02,21,14,07,13.40
2015,02,21,14,08,13.60
2015,02,21,14,09,13.70
2015,02,21,14,10,13.70
2015,02,21,14,11,13.70
2015,02,21,14,12,13.60
2015,02,21,14,13,13.50
2015,02,21,14,14,13.50
2015,02,21,14,15,13.50
2015,02,21,14,16,13.50
2015,02,21,14,17,13.50
2015,02,21,14,18,13.60
2015,02,21,14,19,13.70
2015,02,21,14,20,13.70
2015,02,21,14,21,13.70
2015,02,21,14,22,13.70
2015,02,21,14,23,13.70
2015,02,21,14,24,13.70
2015,02,21,14,25,13.80
2015,02,21,14,26,13.80
2015,02,21,14,27,13.80
2015,02,21,14,28,13.90
2015,02,21,14,29,13.90
2015,02,21,14,30,13.90
2015,02,21,14,31,14.00
2015,02,21,14,32,14.00
2015,02,21,14,33,14.20
2015,02,21,14,34,14.20
2015,02,21,14,35,14.20
2015,02,21,14,36,14.40
2015,02,21,14,37,14.50
2015,02,21,14,38,14.70
2015,02,21,14,39,14.80
2015,02,21,14,40,14.90
2015,02,21,14,41,15.00
2015,02,21,14,42,15.20
2015,02,21,14,43,15.20
2015,02,21,14,44,15.30
2015,02,21,14,45,15.30
2015,02,21,14,46,15.30
2015,02,21,14,47,15.30
2015,02,21,14,48,15.30
2015,02,21,14,49,15.40
2015,02,21,14,50,15.50
2015,02,21,14,51,15.60
2015,02,21,14,52,15.60
2015,02,21,14,53,15.70
2015,02,21,14,54,15.70
2015,02,21,14,55,15.60
2015,02,21,14,56,15.50
2015,02,21,14,57,15.40
2015,02,21,14,58,15.30
2015,02,21,14,59,15.30
2015,02,21,15,00,15.30
2015,02,21,15,01,15.30
2015,02,21,15,02,15.30
2015,02,21,15,03,15.40
2015,02,21,15,04,15.40
2015,02,21,15,05,15.50
2015,02,21,15,06,15.60
2015,02,21,15,07,15.70
2015,02,21,15,08,15.80
2015,02,21,15,09,15.80
2015,02,21,15,10,15.80
2015,02,21,15,11,15.80
2015,02,21,15,12,15.80
2015,02,21,15,13,15.90
2015,02,21,15,14,15.90
2015,02,21,15,15,15.90
2015,02,21,15,16,15.80
2015,02,21,15,17,15.80
2015,02,21,15,18,15.80
2015,02,21,15,19,15.80
2015,02,21,15,20,15.80
2015,02,21,15,21,15.80
2015,02,21,15,22,15.80
2015,02,21,15,23,15.80
2015,02,21,15,24,15.80
2015,02,21,15,25,15.80
2015,02,21,15,26,15.80
2015,02,21,15,27,15.80
2015,02,21,15,28,15.80
2015,02,21,15,29,15.70
2015,02,21,15,30,15.50
2015,02,21,15,31,15.40
2015,02,21,15,32,15.40
2015,02,21,15,33,15.30
2015,02,21,15,34,15.30
2015,02,21,15,35,15.30
2015,02,21,15,36,15.40
2015,02,21,15,37,15.40
2015,02,21,15,38,15.40
2015,02,21,15,39,15.50
2015,02,21,15,40,15.50
2015,02,21,15,41,15.40
2015,02,21,15,42,15.40
2015,02,21,15,43,15.40
2015,02,21,15,44,15.30
2015,02,21,15,45,15.30
2015,02,21,15,46,15.20
2015,02,21,15,47,15.20
2015,02,21,15,48,15.30
2015,02,21,15,49,15.30
2015,02,21,15,50,15.30
2015,02,21,15,51,15.30
2015,02,21,15,52,15.30
2015,02,21,15,53,15.20
2015,02,21,15,54,15.20
2015,02,21,15,55,15.20
2015,02,21,15,56,15.30
2015,02,21,15,57,15.30
2015,02,21,15,58,15.30
2015,02,21,15,59,15.20
2015,02,21,16,00,15.10
2015,02,21,16,01,14.90
2015,02,21,16,02,14.80
2015,02,21,16,03,14.80
2015,02,21,16,04,14.80
2015,02,21,16,05,14.80
2015,02,21,16,06,14.70
2015,02,21,16,07,14.70
2015,02,21,16,08,14.70
2015,02,21,16,09,14.70
2015,02,21,16,10,14.60
2015,02,21,16,11,14.50
2015,02,21,16,12,14.50
2015,02,21,16,13,14.60
2015,02,21,16,14,14.60
2015,02,21,16,15,14.60
2015,02,21,16,16,14.60
2015,02,21,16,17,14.60
2015,02,21,16,18,14.60
2015,02,21,16,19,14.60
2015,02,21,16,20,14.50
2015,02,21,16,21,14.50
2015,02,21,16,22,14.50
2015,02,21,16,23,14.50
2015,02,21,16,24,14.40
2015,02,21,16,25,14.40
2015,02,21,16,26,14.30
2015,02,21,16,27,14.20
2015,02,21,16,28,14.20
2015,02,21,16,29,14.20
2015,02,21,16,30,14.20
2015,02,21,16,31,14.10
2015,02,21,16,32,14.10
2015,02,21,16,33,14.00
2015,02,21,16,34,14.00
2015,02,21,16,35,14.00
2015,02,21,16,36,13.90
2015,02,21,16,37,13.90
2015,02,21,16,38,13.90
2015,02,21,16,39,13.80
2015,02,21,16,40,13.70
2015,02,21,16,41,13.70
2015,02,21,16,42,13.70
2015,02,21,16,43,13.70
2015,02,21,16,44,13.60
2015,02,21,16,45,13.50
2015,02,21,16,46,13.50
2015,02,21,16,47,13.40
2015,02,21,16,48,13.30
2015,02,21,16,49,13.30
2015,02,21,16,50,13.30
2015,02,21,16,51,13.20
2015,02,21,16,52,13.10
2015,02,21,16,53,12.90
2015,02,21,16,54,12.80
2015,02,21,16,55,12.70
2015,02,21,16,56,12.50
2015,02,21,16,57,12.50
2015,02,21,16,58,12.30
2015,02,21,16,59,12.30
2015,02,21,17,00,12.10
2015,02,21,17,01,12.00
2015,02,21,17,02,11.80
2015,02,21,17,03,11.80
2015,02,21,17,04,11.70
2015,02,21,17,05,11.60
2015,02,21,17,06,11.40
2015,02,21,17,07,11.40
2015,02,21,17,08,11.30
2015,02,21,17,09,11.20
2015,02,21,17,10,11.20
2015,02,21,17,11,11.10
2015,02,21,17,12,11.10
2015,02,21,17,13,11.10
2015,02,21,17,14,11.10
2015,02,21,17,15,10.90
2015,02,21,17,16,10.90
2015,02,21,17,17,10.90
2015,02,21,17,18,10.90
2015,02,21,17,19,10.80
2015,02,21,17,20,10.80
2015,02,21,17,21,10.70
2015,02,21,17,22,10.60
2015,02,21,17,23,10.60
2015,02,21,17,24,10.60
2015,02,21,17,25,10.60
2015,02,21,17,26,10.40
2015,02,21,17,27,10.60
2015,02,21,17,28,10.60
2015,02,21,17,29,10.60
2015,02,21,17,30,10.60
2015,02,21,17,31,10.40
2015,02,21,17,32,10.40
2015,02,21,17,33,10.40
2015,02,21,17,34,10.30
2015,02,21,17,35,10.30
2015,02,21,17,36,10.20
2015,02,21,17,37,10.20
2015,02,21,17,38,10.20
2015,02,21,17,39,10.20
2015,02,21,17,40,10.30
2015,02,21,17,41,10.30
2015,02,21,17,42,10.20
2015,02,21,17,43,10.20
2015,02,21,17,44,10.20
2015,02,21,17,45,10.20
2015,02,21,17,46,10.20
2015,02,21,17,47,10.20
2015,02,21,17,48,10.20
2015,02,21,17,49,10.30
2015,02,21,17,50,10.30
2015,02,21,17,51,10.20
2015,02,21,17,52,10.20
2015,02,21,17,53,10.10
2015,02,21,17,54,10.20